This demonstration page uses our WeatherBlox Daily Observations layout. Learn more.

Left ArrowRight Arrow

44.8408, -93.29828

Hourly Observations for December 21, 2019

Temp ( °F °C ) Dew Point ( °F °C ) Humidity (%) Winds ( mph kmh ) Pressure ( in mb ) Visibility ( mi km ) Precip ( " mm )
12:06 am 00:06 Cloudy with Mist and Fog 21 -6.1 19 -7.2 92 92 WSW 5 7 30.30 1026 3 5 0.00 0.00
12:20 am 00:20 Cloudy with Mist and Fog 21 -6.1 19 -7.2 92 92 SW 7 11 30.30 1026 4 6 0.00 0.00
12:53 am 00:53 Cloudy with Mist and Fog 20 -6.7 17 -8.3 89 89 SW 10 17 30.26 1025 4 6 0.00 0.00
1:53 am 01:53 Cloudy with Mist and Fog 20 -6.7 18 -7.8 92 92 WSW 6 9 30.26 1025 4 6 0.00 0.00
2:53 am 02:53 Cloudy with Mist and Fog 21 -6.1 19 -7.2 92 92 SW 5 7 30.27 1025 3 4 0.00 0.00
3:02 am 03:02 Cloudy with Mist and Fog 21 -6.1 19 -7.2 92 92 WSW 6 9 30.31 1026 2 3 0.00 0.00
3:30 am 03:30 Cloudy with Mist and Fog 21 -6.1 19 -7.2 92 92 SW 6 9 30.30 1026 2 3 0.00 0.00
3:37 am 03:37 Cloudy with Mist and Fog 22 -5.6 20 -6.7 92 92 S 5 7 30.30 1026 3 4 0.00 0.00
3:53 am 03:53 Cloudy with Mist and Fog 22 -5.6 20 -6.7 92 92 SW 6 9 30.26 1025 3 4 0.00 0.00
4:24 am 04:24 Cloudy with Mist and Fog 22 -5.6 20 -6.7 92 92 S 7 11 30.28 1025 3 5 0.00 0.00
4:53 am 04:53 Mostly Cloudy with Mist and Fog 21 -6.1 20 -6.7 96 96 SSE 6 9 30.24 1024 3 5 0.00 0.00
5:07 am 05:07 Partly Cloudy with Mist and Fog 21 -6.1 19 -7.2 92 92 SE 5 7 30.28 1025 3 5 0.00 0.00
5:53 am 05:53 Partly Cloudy with Mist and Fog 20 -6.7 19 -7.2 96 96 SE 6 9 30.24 1024 3 5 0.00 0.00
6:53 am 06:53 Mostly Clear with Mist and Fog 19 -7.2 17 -8.3 92 92 SSE 7 11 30.23 1024 4 6 0.00 0.00
7:53 am 07:53 Partly Cloudy with Mist and Fog 19 -7.2 16 -8.9 88 88 SE 3 6 30.23 1024 4 6 0.00 0.00
8:53 am 08:53 Mostly Cloudy with Mist and Fog 20 -6.7 16 -8.9 85 85 SE 5 7 30.21 1023 5 8 0.00 0.00
9:53 am 09:53 Mostly Cloudy with Haze 24 -4.4 18 -7.8 77 77 SE 5 7 30.20 1023 6 10 0.00 0.00
10:53 am 10:53 Mostly Cloudy 29 -1.7 21 -6.1 72 72 Calm 30.19 1023 8 13 0.00 0.00
11:53 am 11:53 Mostly Cloudy 35 1.7 23 -5 61 61 S 5 7 30.14 1021 10 16 0.00 0.00
12:53 pm 12:53 Mostly Cloudy 40 4.4 24 -4.4 53 53 SSE 3 6 30.13 1020 10 16 0.00 0.00
1:53 pm 13:53 Mostly Cloudy 44 6.7 24 -4.4 45 45 SSW 7 11 30.11 1020 10 16 0.00 0.00
2:53 pm 14:53 Mostly Cloudy 43 6.1 25 -3.9 49 49 SSW 7 11 30.11 1020 10 16 0.00 0.00
3:53 pm 15:53 Mostly Cloudy 42 5.6 25 -3.9 51 51 S 6 9 30.11 1020 10 16 0.00 0.00
4:53 pm 16:53 Mostly Cloudy 40 4.4 26 -3.3 58 58 S 7 11 30.11 1020 10 16 0.00 0.00
5:53 pm 17:53 Partly Cloudy 40 4.4 27 -2.8 60 60 SSW 7 11 30.11 1020 10 16 0.00 0.00
6:53 pm 18:53 Partly Cloudy 40 4.4 28 -2.2 63 63 SSW 7 11 30.10 1019 10 16 0.00 0.00
7:53 pm 19:53 Mostly Clear 39 3.9 29 -1.7 67 67 SSW 9 15 30.10 1019 10 16 0.00 0.00
8:53 pm 20:53 Partly Cloudy 39 3.9 29 -1.7 67 67 SSW 5 7 30.09 1019 10 16 0.00 0.00
9:53 pm 21:53 Partly Cloudy 38 3.3 28 -2.2 68 68 SW 3 6 30.08 1019 10 16 0.00 0.00
10:53 pm 22:53 Partly Cloudy 38 3.3 27 -2.8 65 65 S 3 6 30.08 1019 10 16 0.00 0.00
11:53 pm 23:53 Partly Cloudy 38 3.3 27 -2.8 65 65 SSW 5 7 30.07 1018 10 16 0.00 0.00

Powered by AerisWeather